This is the latest recevied weather packets stored in our database for station/object S54A-11. If no packets are shown the sender has not sent any weather packets the latest 10 day(s).
| Time | Temp. | Humidity | Pressure | Rain* | Wind** | Luminosity | Snow |
|---|---|---|---|---|---|---|---|
| 1788642978 | 19.44° C | 49% | 1022.6 hPa | - | - | - | - |
| 1788638478 | 21.11° C | 53% | 1022.2 hPa | - | - | - | - |
| 1788636677 | 21.11° C | 51% | 1021.9 hPa | - | - | - | - |
| 1788635777 | 21.67° C | 54% | 1021.6 hPa | - | - | - | - |
| 1788634877 | 21.67° C | 49% | 1021.4 hPa | - | - | - | - |
| 1788633077 | 22.22° C | 50% | 1021.1 hPa | - | - | - | - |
| 1788632177 | 22.22° C | 50% | 1020.9 hPa | - | - | - | - |
| 1788631277 | 22.22° C | 51% | 1020.6 hPa | - | - | - | - |
| 1788629477 | 23.89° C | 43% | 1020.1 hPa | - | - | - | - |
| 1788628577 | 25° C | 41% | 1019.9 hPa | - | - | - | - |
| 1788627677 | 26.67° C | 40% | 1019.7 hPa | - | - | - | - |
| 1788626777 | 26.11° C | 40% | 1019.6 hPa | - | - | - | - |
| 1788625877 | 26.11° C | 40% | 1019.6 hPa | - | - | - | - |
| 1788624976 | 26.67° C | 40% | 1019.5 hPa | - | - | - | - |
| 1788621376 | 27.78° C | 38% | 1018.4 hPa | - | - | - | - |
| 1788618676 | 28.33° C | 38% | 1017.8 hPa | - | - | - | - |
| 1788617776 | 29.44° C | 37% | 1017.6 hPa | - | - | - | - |
| 1788616876 | 30.56° C | 37% | 1017.6 hPa | - | - | - | - |
| 1788615976 | 32.78° C | 35% | 1017.4 hPa | - | - | - | - |
| 1788615076 | 35° C | 32% | 1017.5 hPa | - | - | - | - |
| 1788614176 | 35.56° C | 32% | 1017.5 hPa | - | - | - | - |
| 1788613276 | 36.67° C | 29% | 1017.4 hPa | - | - | - | - |
| 1788612376 | 35.56° C | 30% | 1017.3 hPa | - | - | - | - |
| 1788611476 | 36.11° C | 29% | 1017.4 hPa | - | - | - | - |
| 1788610575 | 37.78° C | 28% | 1017.4 hPa | - | - | - | - |
* Rain since midnight (hover to see other rain measurements)
** Current wind speed in m/s (hover to see current wind gust speed)